Wind_Speed
4 3 4 3 4 5 3 5 4 8 4 3 4 7 6 4 3 1 8 18 23 21 20 21 20 14 7 9 10 9 9 8 8 8 8 9 12 12 12 16 17 15 16 15 13 13 13 14 16
2 4 1 2 4 3 2 2 9 5 3 7 9 3 5 3 4 2 6 19 19 19 18 18 18 16 12 9 10 10 9 10 10 9 8 9 11 12 12 16 17 15 13 13 12 12 13 15 15
7 7 3 3 3 3 3 4 5 3 8 5 4 6 3 1 2 2 12 12 16 18 17 19 20 19 15 8 12 10 11 11 10 9 8 9 10 12 15 18 16 17 14 13 14 13 14 16 17
4 5 4 4 5 4 5 3 6 3 5 7 4 5 2 0 0 7 9 13 17 19 18 16 19 20 17 10 9 11 10 8 7 7 8 8 9 11 17 20 17 16 16 14 14 14 15 16 19
1 3 3 3 4 4 5 5 5 5 4 5 3 3 3 3 7 9 9 11 15 17 17 17 17 17 17 10 7 4 4 1 3 3 6 7 9 11 15 19 19 17 14 16 15 15 15 16 19
4 3 4 2 3 5 4 5 3 4 4 4 5 3 5 8 12 10 9 9 11 16 18 16 15 15 15 13 5 3 4 5 3 1 4 6 7 11 15 19 18 19 17 16 16 15 15 15 19
2 3 2 5 5 4 2 2 3 3 3 2 0 3 5 10 10 8 9 7 11 14 15 16 16 13 12 12 2 1 4 12 9 2 2 4 7 10 13 17 18 19 18 19 17 14 13 16 17
3 3 3 4 2 1 1 3 4 3 1 3 2 3 3 2 8 6 6 9 10 13 13 15 15 14 13 10 8 4 2 2 12 3 5 5 5 8 13 16 17 19 20 18 17 16 14 14 16
4 4 3 3 4 2 2 2 5 2 3 2 4 4 4 4 6 7 9 10 12 14 13 16 14 12 11 10 10 5 4 2 5 9 7 8 7 7 10 17 20 22 22 19 16 15 13 13 15
5 4 2 1 3 3 2 3 1 3 3 2 2 4 4 6 7 8 8 9 11 13 14 15 16 14 10 8 9 6 4 3 6 10 14 9 12 8 10 13 21 23 22 21 19 16 13 14 16
3 4 5 3 4 5 5 1 2 2 2 1 5 2 4 5 6 5 6 6 8 11 12 14 15 13 11 9 8 6 5 3 4 6 7 7 10 10 10 13 21 25 24 25 22 18 14 13 16
6 5 5 2 4 5 3 7 5 4 5 6 3 1 2 5 4 4 7 6 9 11 11 15 16 14 12 11 8 9 6 6 7 6 6 10 7 12 10 14 23 28 31 28 24 20 17 13 12
5 3 5 5 4 3 4 6 6 7 6 6 5 4 7 6 3 4 5 7 9 11 12 14 16 16 15 12 10 9 9 8 7 9 8 6 12 15 15 13 21 29 31 28 26 22 21 15 11
3 5 6 4 2 3 3 5 5 5 7 6 7 9 8 8 7 5 5 7 10 11 13 14 15 17 16 14 10 9 11 8 8 10 10 7 12 21 19 15 22 27 30 27 25 25 22 18 15
6 3 1 3 3 1 2 7 8 6 7 6 9 9 9 11 11 10 9 6 7 10 11 13 15 15 16 16 13 11 7 8 9 12 9 14 11 23 26 24 25 29 29 27 27 24 21 19 17
2 2 2 2 1 2 4 8 6 8 8 9 9 9 8 10 14 13 10 5 4 8 9 11 13 14 16 15 16 12 9 6 9 10 11 12 14 25 30 26 26 29 30 30 27 26 22 21 19
3 1 1 1 3 1 3 7 7 6 7 8 8 9 7 8 11 11 11 5 4 8 9 9 12 14 16 16 17 12 6 5 8 9 10 12 19 29 34 27 25 28 30 34 32 28 27 22 20
3 3 4 2 3 2 5 13 11 10 9 9 8 9 7 8 6 15 10 5 3 6 6 8 13 13 14 15 16 9 4 6 6 8 10 11 12 30 36 31 27 27 32 32 32 30 25 22 20
1 2 5 3 1 2 3 8 11 7 6 7 7 5 4 5 9 11 9 3 2 3 4 8 12 13 12 14 16 14 9 6 6 9 10 12 6 26 35 33 31 31 32 35 33 29 25 22 19
3 2 4 6 2 2 5 14 12 6 6 5 5 5 6 4 4 8 7 7 4 0 3 7 11 12 11 13 10 12 13 6 6 9 11 12 4 12 33 31 30 28 30 29 32 30 25 20 21
3 2 2 4 9 4 5 7 5 1 4 4 5 5 4 3 3 5 9 6 3 2 5 8 9 10 10 11 11 11 5 5 8 13 12 12 11 12 25 25 23 24 28 35 31 28 29 22 23
2 1 2 4 6 2 4 4 6 4 6 5 7 6 6 3 1 2 5 5 2 2 6 6 8 8 9 10 10 10 9 7 10 12 12 10 13 18 16 21 23 24 22 28 29 28 28 25 23
2 1 1 2 2 2 4 4 7 2 6 7 8 7 6 5 5 4 5 5 1 2 4 6 7 6 10 9 9 9 9 9 11 11 10 11 11 13 15 18 20 18 22 22 26 27 26 24 24
1 1 1 2 2 3 3 4 6 3 4 2 3 6 6 4 5 4 7 3 3 1 4 6 7 7 8 9 9 8 10 11 11 11 12 12 10 13 10 10 9 11 17 19 21 27 27 26 21
0 3 4 5 4 4 3 3 9 5 3 4 4 3 3 4 2 3 6 4 5 1 5 5 6 7 9 9 8 8 9 8 11 10 11 10 11 11 10 8 5 5 9 13 13 22 26 25 23
2 2 4 4 2 5 1 5 3 3 3 3 4 1 3 5 1 2 5 6 4 2 3 4 6 8 8 8 8 8 8 10 7 6 8 11 10 8 8 7 6 5 7 14 14 12 18 19 16
1 2 2 6 2 3 3 7 3 2 1 2 1 2 5 2 2 4 5 5 4 2 2 4 4 6 7 10 9 8 7 7 9 9 8 9 8 7 8 8 3 3 7 10 15 21 20 19 16
1 2 3 3 1 4 5 6 5 3 2 4 4 4 0 3 3 1 2 6 3 1 2 2 4 4 5 6 6 7 7 7 7 6 7 5 6 6 5 4 5 3 7 8 12 19 20 19 18
1 1 2 2 3 4 1 6 7 6 6 8 7 7 3 0 1 2 3 4 3 1 1 2 3 4 5 6 6 6 7 7 7 7 6 5 5 5 3 4 6 5 7 8 10 11 13 10 11
2 2 4 4 4 1 3 7 3 5 5 5 7 7 5 4 4 3 6 7 4 3 1 0 1 2 4 5 5 7 8 8 8 7 7 6 6 4 2 3 4 7 9 11 14 15 15 14 15
Wind_Direction
348 6 341 9 58 68 10 35 107 39 40 34 70 66 108 48 70 20 324 354 350 355 357 4 10 342 278 256 241 211 196 186 187 178 174 170 165 163 154 140 134 133 119 115 115 113 117 113 108
44 23 347 73 88 64 308 340 46 84 84 90 79 73 46 77 43 19 4 355 345 349 360 7 5 13 344 267 255 238 216 196 187 186 176 172 169 171 161 149 142 139 127 129 126 123 125 125 118
322 322 77 105 98 119 128 18 34 52 80 69 89 55 44 326 37 314 354 346 343 353 355 3 12 13 18 359 245 241 231 215 195 190 184 175 175 176 171 156 152 147 134 131 129 126 128 134 128
340 10 8 82 128 2 109 26 0 109 74 45 124 74 81 206 153 19 357 348 355 356 357 353 7 17 23 25 358 250 244 226 218 202 200 180 173 178 172 162 160 155 146 137 132 130 129 134 132
276 79 21 96 72 100 69 40 8 25 95 23 46 148 112 48 29 13 2 347 356 355 360 357 352 4 15 36 52 67 55 173 207 217 232 199 183 182 180 170 166 159 151 146 141 137 136 141 140
6 95 54 84 85 122 56 31 35 44 38 8 48 115 124 61 25 14 8 353 357 352 358 0 355 353 360 12 87 47 132 183 325 160 242 222 197 191 186 179 174 168 164 152 146 143 145 147 150
122 81 177 95 159 65 91 5 68 17 52 80 128 37 140 35 14 17 19 17 6 353 354 1 1 3 0 356 1 84 162 183 228 186 265 237 216 197 192 187 182 175 170 161 151 150 152 153 155
98 93 110 30 49 110 248 29 116 87 225 125 91 159 202 314 8 16 12 22 5 353 352 351 359 4 13 9 352 328 302 155 195 167 251 242 220 220 204 195 194 180 176 167 156 156 154 155 158
26 63 56 34 61 116 30 76 349 202 161 159 131 134 147 40 4 13 11 356 352 352 353 343 349 360 5 12 356 352 335 230 207 203 254 251 262 245 224 209 196 186 182 165 155 158 158 151 146
69 76 122 50 69 22 49 47 315 345 296 148 104 108 46 18 7 20 8 354 347 348 349 339 344 344 354 356 352 344 324 315 293 228 245 229 230 264 257 226 203 195 187 169 161 164 161 153 139
35 122 152 48 58 11 329 14 234 252 304 164 195 242 10 348 344 352 335 338 343 341 344 343 344 341 335 340 327 330 320 292 309 300 275 257 214 246 295 233 200 193 183 166 163 161 158 151 145
95 51 105 91 56 16 347 306 291 207 225 176 147 122 309 288 296 306 314 327 338 343 344 343 346 345 335 326 327 313 307 303 273 286 304 267 231 195 320 240 197 188 176 173 171 167 155 150 145
82 142 86 121 95 273 323 284 257 249 188 174 175 213 251 245 251 268 290 314 328 337 342 349 345 346 345 333 323 315 302 285 290 290 264 282 234 206 220 244 202 190 182 174 172 170 161 168 162
111 119 137 149 118 214 238 272 333 268 170 190 214 225 233 212 216 239 248 305 321 330 339 344 347 342 341 341 329 317 311 294 296 296 277 258 235 220 208 230 204 196 185 186 184 175 165 165 170
139 102 196 197 130 277 32 281 228 231 184 215 248 235 222 214 209 221 223 261 304 321 331 339 344 344 341 336 328 315 316 299 296 312 290 258 239 223 207 213 209 202 198 190 184 177 177 173 177
188 95 107 221 69 177 86 276 258 201 180 230 255 266 230 219 210 212 210 228 291 314 324 334 337 340 339 337 326 312 301 293 291 303 295 274 259 225 219 215 210 204 197 191 183 181 179 175 181
4 246 81 208 142 230 139 275 273 225 208 239 258 273 252 227 213 194 184 210 294 315 318 330 336 336 339 337 327 318 300 280 299 315 318 303 263 216 214 205 203 207 200 187 186 182 185 181 183
310 359 322 299 196 193 259 261 274 277 207 234 251 265 274 235 225 171 182 198 316 323 317 323 330 333 338 336 334 328 304 303 314 332 334 330 249 212 206 206 202 202 192 186 185 185 187 191 184
347 354 296 303 113 314 248 280 276 286 214 237 266 284 315 328 178 187 181 187 229 294 320 331 326 329 333 343 350 346 332 333 349 352 343 11 200 200 207 204 202 199 187 185 189 184 181 183 181
33 334 314 283 333 329 294 282 267 239 236 204 235 284 291 302 204 201 188 193 202 201 342 334 325 330 338 343 352 329 316 337 348 359 6 30 17 190 195 197 190 201 195 184 188 182 180 186 187
49 113 27 260 318 268 298 302 322 105 191 217 238 235 265 240 230 141 189 193 158 28 348 336 331 335 339 344 347 351 319 352 9 18 17 38 43 97 177 180 183 198 203 178 183 185 182 175 182
206 16 337 314 8 316 33 281 310 232 235 248 252 238 233 173 128 236 196 148 113 4 343 343 338 349 337 350 5 13 0 346 356 4 17 44 37 85 134 172 180 184 183 180 184 183 185 183 182
195 288 257 295 327 1 9 67 271 85 269 242 247 231 229 195 182 193 174 169 182 319 1 344 343 340 345 354 11 18 3 3 360 7 32 74 55 56 86 145 165 175 185 184 186 188 194 197 196
310 245 277 2 60 33 237 121 285 224 223 200 221 242 228 194 192 194 191 182 173 156 20 355 359 343 347 354 13 17 12 15 13 17 33 52 60 61 67 96 139 166 181 190 200 203 199 199 204
318 55 337 353 11 207 156 45 246 286 245 171 168 228 225 182 140 156 198 203 166 350 4 15 354 354 343 354 15 21 23 18 34 7 33 52 57 56 56 86 176 153 181 186 180 194 201 199 201
39 125 144 228 302 274 294 237 250 177 150 112 97 356 291 307 123 218 152 171 166 85 8 15 14 344 348 357 16 19 19 17 357 29 47 48 55 47 57 72 113 175 184 197 212 178 181 186 196
249 48 146 103 45 30 252 284 332 236 237 140 150 226 305 89 173 148 176 171 160 132 34 16 31 348 352 354 6 18 24 13 18 18 36 52 55 43 53 62 86 174 176 175 199 207 196 190 196
353 182 65 10 47 303 295 286 235 317 285 207 208 248 214 29 32 126 186 167 162 114 52 26 28 23 359 5 12 12 21 20 23 22 32 31 49 51 67 80 94 123 196 185 176 197 192 193 184
127 56 76 112 134 168 288 275 210 206 180 189 190 187 197 264 96 111 147 184 179 132 25 44 20 17 18 17 16 34 28 28 30 30 24 36 55 32 37 84 83 111 159 187 200 178 173 174 175
310 198 170 125 255 171 145 274 223 217 182 170 186 196 184 178 177 150 155 180 220 190 234 82 23 15 33 25 23 34 33 35 39 31 27 38 60 43 20 90 111 115 123 140 174 177 160 153 160
Height
799 799 799 800 825 831 832 827 818 822 823 820 816 823 834 837 839 846 842 840 836 832 827 824 821 819 818 820 821 820 819 820 821 822 823 824 823 824 827 828 830 831 832 833 835 837 838 839 839
799 799 800 808 834 846 846 830 830 825 820 819 822 829 836 843 840 842 841 839 837 833 829 825 822 819 817 818 818 819 820 819 820 821 822 823 823 824 827 829 830 832 833 834 835 838 838 839 840
801 801 808 820 838 845 843 832 828 823 819 821 831 836 841 846 844 844 842 838 836 833 829 826 823 820 817 815 816 817 819 820 819 820 821 823 824 824 826 828 830 831 834 835 836 838 839 840 842
800 803 810 828 835 832 835 831 825 825 822 823 830 841 845 844 844 843 840 837 835 832 829 826 823 820 818 815 814 812 817 820 820 820 821 822 823 824 825 827 829 830 833 835 837 837 839 840 841
801 808 827 830 828 831 832 827 825 827 828 830 827 841 845 844 843 841 839 837 834 831 828 825 823 821 820 816 815 816 814 818 817 819 822 822 823 824 826 826 828 830 832 835 837 838 839 840 842
809 812 836 839 833 829 831 827 828 831 834 832 834 837 842 844 840 840 838 835 833 831 827 824 822 820 819 817 814 815 813 815 818 817 821 822 823 824 825 826 827 829 831 835 837 838 838 840 842
809 824 827 830 837 834 832 827 832 833 835 836 832 838 843 840 840 839 838 836 833 831 827 825 822 819 817 818 815 813 815 814 817 817 820 822 822 823 825 826 827 830 831 833 836 839 839 840 842
810 819 820 831 839 843 831 829 829 833 835 832 832 840 841 839 838 836 835 833 831 829 827 824 822 819 817 817 815 813 813 812 815 813 819 820 821 823 824 826 828 830 831 833 835 838 840 841 842
804 830 841 838 835 837 832 834 831 830 833 832 832 835 835 835 836 834 833 831 831 829 827 824 821 818 816 815 815 812 813 812 812 813 817 817 819 822 824 824 826 829 831 832 834 838 841 842 842
820 841 836 834 835 839 835 833 833 834 834 834 835 834 834 833 833 833 831 830 829 827 825 823 821 818 814 813 812 812 810 811 813 811 816 816 818 819 821 822 824 827 830 831 832 837 841 843 843
821 838 835 836 834 835 835 834 832 833 834 834 834 833 832 832 832 831 831 830 827 825 823 821 818 816 815 813 811 811 809 809 811 812 812 812 814 817 818 820 822 825 827 830 834 836 840 843 845
831 831 830 833 834 837 840 837 834 832 831 830 829 830 831 831 830 830 830 829 826 824 821 820 818 815 813 812 810 809 807 807 808 808 809 811 812 815 818 820 819 822 824 827 830 836 838 843 845
832 832 832 834 832 837 837 839 838 831 829 827 828 829 829 829 829 829 829 828 825 823 821 818 815 813 811 810 808 807 805 804 804 804 806 809 810 812 815 818 820 821 823 827 830 834 836 841 845
829 832 834 833 832 834 838 838 837 825 825 826 827 826 825 825 825 825 826 825 824 822 820 817 814 812 810 807 806 805 802 802 802 801 802 805 806 809 809 814 817 819 822 825 828 831 835 837 841
832 836 835 834 833 836 837 837 833 825 824 825 825 822 821 821 821 820 820 821 821 820 819 817 814 811 809 806 804 802 801 799 798 797 799 800 802 803 805 810 814 817 819 824 829 831 835 837 840
834 834 841 834 834 834 839 841 821 823 824 824 823 822 818 817 816 816 817 818 818 818 817 815 813 810 807 805 801 798 797 796 797 795 795 793 795 798 801 805 808 813 816 821 825 830 834 837 841
838 843 832 835 834 835 837 840 824 822 822 822 821 818 815 814 813 813 814 815 815 816 816 814 812 809 806 804 801 796 794 792 793 791 789 787 787 791 796 800 804 810 814 818 823 828 832 836 840
845 842 837 833 835 836 839 836 826 819 821 821 819 816 813 811 810 811 812 813 813 814 814 813 811 809 805 803 800 795 792 791 789 788 787 783 779 783 790 796 801 806 811 815 821 824 830 833 837
840 840 845 833 836 835 834 834 823 818 818 817 816 815 812 810 809 810 811 811 812 813 813 812 810 806 804 801 798 795 793 790 786 785 784 779 776 779 785 791 797 802 807 809 816 821 827 832 836
841 843 849 843 834 837 835 826 816 815 813 812 810 811 811 810 810 810 811 810 810 811 811 810 809 806 804 802 799 797 793 790 787 784 780 775 774 774 782 786 792 799 803 807 813 818 823 829 833
851 847 856 861 848 836 835 828 808 806 807 808 809 809 809 809 808 810 810 809 809 810 810 810 808 806 804 801 799 796 792 791 788 784 781 775 773 772 778 786 790 797 800 803 810 814 819 824 831
843 853 852 852 862 842 836 850 825 811 811 811 812 812 810 807 807 808 807 809 809 808 809 808 807 806 804 801 799 797 795 793 788 786 781 773 775 771 778 784 790 795 798 802 807 812 816 821 826
849 853 852 851 855 854 842 866 828 811 812 813 812 812 807 807 807 806 807 807 807 807 808 808 806 805 803 801 799 798 797 794 789 786 784 777 780 776 777 784 789 794 798 803 807 810 815 819 824
851 852 853 851 862 895 845 854 831 817 805 804 807 809 807 806 807 806 806 806 806 807 807 807 806 804 802 800 798 798 795 795 793 789 785 781 781 780 781 784 790 794 798 802 804 808 813 818 822
852 856 889 869 878 867 851 864 826 807 802 802 804 807 806 807 807 806 806 805 806 806 806 807 805 803 801 800 798 797 795 795 795 792 788 788 785 785 787 788 791 793 797 799 803 807 812 816 819
853 857 884 860 867 864 854 840 809 800 802 800 802 804 804 806 808 805 804 805 805 805 806 806 807 803 801 800 798 796 794 792 795 797 795 789 788 789 790 791 791 794 796 798 802 802 808 813 817
853 871 861 892 920 887 849 824 804 801 800 802 802 802 805 806 807 806 805 804 804 804 805 805 806 805 803 799 798 797 795 794 793 791 790 790 789 788 787 788 792 794 795 797 799 803 807 810 814
858 858 869 889 866 863 855 835 820 799 798 801 802 802 804 805 805 806 806 805 805 804 805 805 805 805 804 803 801 799 797 795 793 792 791 791 790 790 790 792 793 793 795 796 798 802 805 809 812
867 871 861 866 873 881 890 830 814 795 792 798 800 800 801 803 805 806 807 806 805 804 804 805 804 804 803 803 802 799 797 796 795 794 793 792 790 791 792 793 792 793 794 795 797 801 804 806 809
860 847 854 870 872 892 883 840 796 799 796 796 799 797 797 799 802 804 805 806 805 805 804 804 804 803 803 802 802 800 798 796 795 794 793 792 792 793 794 794 794 792 793 795 797 801 802 805 808